Time,TemperatureF,DewpointF,PressureIn,WindDirection,WindDirectionDegrees,WindSpeedMPH,WindSpeedGustMPH,Humidity,HourlyPrecipIn,Conditions,Clouds,dailyrainin,SoftwareType,DateUTC
2013-06-12 00:00:00,81.5,70.4,29.96,North,0,0.0,0.0,69,0.00,,,0.00,WUHU216HW,2013-06-12 05:00:00,
2013-06-12 00:05:00,81.5,70.4,29.96,North,0,0.0,0.0,69,0.00,,,0.00,WUHU216HW,2013-06-12 05:05:00,
2013-06-12 00:30:00,80.8,70.2,29.96,North,0,0.0,0.0,70,0.00,,,0.00,WUHU216HW,2013-06-12 05:30:00,
2013-06-12 00:35:00,80.8,70.2,29.96,North,0,0.0,0.0,70,0.00,,,0.00,WUHU216HW,2013-06-12 05:35:00,
2013-06-12 01:00:00,80.3,70.0,29.96,North,0,0.0,0.0,71,0.00,,,0.00,WUHU216HW,2013-06-12 06:00:00,
2013-06-12 01:05:00,80.3,70.0,29.96,North,0,0.0,0.0,71,0.00,,,0.00,WUHU216HW,2013-06-12 06:05:00,
2013-06-12 01:30:00,79.7,70.8,29.96,North,0,0.0,0.0,74,0.00,,,0.00,WUHU216HW,2013-06-12 06:30:00,
2013-06-12 01:35:00,79.7,70.8,29.96,North,0,0.0,0.0,74,0.00,,,0.00,WUHU216HW,2013-06-12 06:35:00,
2013-06-12 02:00:00,79.0,70.4,29.95,North,0,0.0,0.0,75,0.00,,,0.00,WUHU216HW,2013-06-12 07:00:00,
2013-06-12 02:04:00,79.0,70.4,29.95,North,0,0.0,0.0,75,0.00,,,0.00,WUHU216HW,2013-06-12 07:04:00,
2013-06-12 02:30:00,78.5,70.3,29.95,North,0,0.0,0.0,76,0.00,,,0.00,WUHU216HW,2013-06-12 07:30:00,
2013-06-12 02:35:00,78.5,70.3,29.95,North,0,0.0,0.0,76,0.00,,,0.00,WUHU216HW,2013-06-12 07:35:00,
2013-06-12 03:00:00,78.1,70.3,29.96,North,0,0.0,0.0,77,0.00,,,0.00,WUHU216HW,2013-06-12 08:00:00,
2013-06-12 03:05:00,78.1,70.3,29.96,North,0,0.0,0.0,77,0.00,,,0.00,WUHU216HW,2013-06-12 08:05:00,
2013-06-12 03:30:00,77.8,69.9,29.96,North,0,0.0,0.0,77,0.00,,,0.00,WUHU216HW,2013-06-12 08:30:00,
2013-06-12 03:35:00,77.8,69.9,29.96,North,0,0.0,0.0,77,0.00,,,0.00,WUHU216HW,2013-06-12 08:35:00,
2013-06-12 04:00:00,77.6,70.1,29.96,North,0,0.0,0.0,78,0.00,,,0.00,WUHU216HW,2013-06-12 09:00:00,
2013-06-12 04:05:00,77.6,70.1,29.96,North,0,0.0,0.0,78,0.00,,,0.00,WUHU216HW,2013-06-12 09:05:00,
2013-06-12 04:30:00,77.4,70.4,29.97,North,0,0.0,0.0,79,0.00,,,0.00,WUHU216HW,2013-06-12 09:30:00,
2013-06-12 04:35:00,77.4,70.4,29.97,North,0,0.0,0.0,79,0.00,,,0.00,WUHU216HW,2013-06-12 09:35:00,
2013-06-12 05:00:00,77.2,70.6,29.98,North,0,0.0,0.0,80,0.00,,,0.00,WUHU216HW,2013-06-12 10:00:00,
2013-06-12 05:05:00,77.2,70.6,29.98,North,0,0.0,0.0,80,0.00,,,0.00,WUHU216HW,2013-06-12 10:05:00,
2013-06-12 05:30:00,77.0,70.7,29.98,North,0,0.0,0.0,81,0.00,,,0.00,WUHU216HW,2013-06-12 10:30:00,
2013-06-12 05:35:00,77.0,70.7,29.98,North,0,0.0,0.0,81,0.00,,,0.00,WUHU216HW,2013-06-12 10:35:00,
2013-06-12 06:00:00,76.9,70.6,29.99,North,0,0.0,0.0,81,0.00,,,0.00,WUHU216HW,2013-06-12 11:00:00,
2013-06-12 06:04:00,76.9,70.6,29.99,North,0,0.0,0.0,81,0.00,,,0.00,WUHU216HW,2013-06-12 11:04:00,
2013-06-12 06:30:00,76.5,70.3,29.99,North,0,0.0,0.0,81,0.00,,,0.00,WUHU216HW,2013-06-12 11:30:00,
2013-06-12 06:35:00,76.5,70.3,29.99,North,0,0.0,0.0,81,0.00,,,0.00,WUHU216HW,2013-06-12 11:35:00,
2013-06-12 07:00:00,76.3,70.8,30.00,North,0,0.0,0.0,83,0.00,,,0.00,WUHU216HW,2013-06-12 12:00:00,
2013-06-12 07:05:00,76.3,70.8,30.00,North,0,0.0,0.0,83,0.00,,,0.00,WUHU216HW,2013-06-12 12:05:00,
2013-06-12 07:30:00,76.7,71.1,30.01,North,0,0.0,0.0,83,0.00,,,0.00,WUHU216HW,2013-06-12 12:30:00,
2013-06-12 07:35:00,76.7,71.1,30.01,North,0,0.0,0.0,83,0.00,,,0.00,WUHU216HW,2013-06-12 12:35:00,
2013-06-12 08:00:00,77.0,71.5,30.03,North,0,0.0,0.0,83,0.00,,,0.00,WUHU216HW,2013-06-12 13:00:00,
2013-06-12 08:05:00,77.0,71.5,30.03,North,0,0.0,0.0,83,0.00,,,0.00,WUHU216HW,2013-06-12 13:05:00,
2013-06-12 08:30:00,77.9,72.0,30.04,North,0,0.0,0.0,82,0.00,,,0.00,WUHU216HW,2013-06-12 13:30:00,
2013-06-12 08:35:00,77.9,72.0,30.04,North,0,0.0,0.0,82,0.00,,,0.00,WUHU216HW,2013-06-12 13:35:00,
2013-06-12 09:00:00,79.6,72.1,30.04,North,0,0.0,0.0,78,0.00,,,0.00,WUHU216HW,2013-06-12 14:00:00,
2013-06-12 09:04:00,79.6,72.1,30.04,North,0,0.0,0.0,78,0.00,,,0.00,WUHU216HW,2013-06-12 14:04:00,
2013-06-12 23:00:00,84.6,68.8,29.96,North,0,0.0,0.0,59,0.00,,,0.00,WUHU216HW,2013-06-13 04:00:00,
2013-06-12 23:01:00,84.6,68.8,29.96,North,0,0.0,0.0,59,0.00,,,0.00,WUHU216HW,2013-06-13 04:01:00,
2013-06-12 23:06:00,84.6,68.8,29.96,North,0,0.0,0.0,59,0.00,,,0.00,WUHU216HW,2013-06-13 04:06:00,
2013-06-12 23:31:00,84.2,68.9,29.96,North,0,0.0,0.0,60,0.00,,,0.00,WUHU216HW,2013-06-13 04:31:00,
2013-06-12 23:36:00,84.2,68.9,29.96,North,0,0.0,0.0,60,0.00,,,0.00,WUHU216HW,2013-06-13 04:36:00,